Time,TemperatureF,DewpointF,PressureIn,WindDirection,WindDirectionDegrees,WindSpeedMPH,WindSpeedGustMPH,Humidity,HourlyPrecipIn,Conditions,Clouds,dailyrainin,SolarRadiationWatts/m^2,SoftwareType,DateUTC
2013-08-14 00:21:00,54.0,53.0,-100.00,ENE,75,1.0,6.0,95,0.00,,,0.00,0.000000,,2013-08-14 08:21:00,
2013-08-14 00:31:00,54.0,53.0,-100.00,ENE,75,1.0,6.0,95,0.00,,,0.00,0.000000,,2013-08-14 08:31:00,
2013-08-14 00:42:00,54.0,53.0,-100.00,ENE,75,1.0,6.0,95,0.00,,,0.00,0.000000,,2013-08-14 08:42:00,
2013-08-14 00:51:00,54.0,53.0,-100.00,ENE,75,1.0,6.0,95,0.00,,,0.00,0.000000,,2013-08-14 08:51:00,
2013-08-14 01:21:00,54.0,53.0,-100.00,NE,41,0.0,2.0,95,0.00,,,0.00,0.000000,,2013-08-14 09:21:00,
2013-08-14 01:33:00,54.0,53.0,-100.00,NE,41,0.0,2.0,95,0.00,,,0.00,0.000000,,2013-08-14 09:33:00,
2013-08-14 01:43:00,54.0,53.0,-100.00,NE,41,0.0,2.0,95,0.00,,,0.00,0.000000,,2013-08-14 09:43:00,
2013-08-14 01:52:00,54.0,53.0,-100.00,NE,41,0.0,2.0,95,0.00,,,0.00,0.000000,,2013-08-14 09:52:00,
2013-08-14 02:22:00,55.0,54.0,-100.00,ESE,108,1.0,3.0,95,0.00,,,0.00,0.000000,,2013-08-14 10:22:00,
2013-08-14 02:32:00,55.0,54.0,-100.00,ESE,108,1.0,3.0,95,0.00,,,0.00,0.000000,,2013-08-14 10:32:00,
2013-08-14 02:52:00,55.0,54.0,-100.00,ESE,108,1.0,3.0,95,0.00,,,0.00,0.000000,,2013-08-14 10:52:00,
2013-08-14 03:21:00,54.0,52.0,-100.00,SSE,162,1.0,3.0,93,0.00,,,0.00,0.000000,,2013-08-14 11:21:00,
2013-08-14 03:32:00,54.0,52.0,-100.00,SSE,162,1.0,3.0,93,0.00,,,0.00,0.000000,,2013-08-14 11:32:00,
2013-08-14 03:51:00,54.0,52.0,-100.00,SSE,162,1.0,3.0,93,0.00,,,0.00,0.000000,,2013-08-14 11:51:00,
2013-08-14 04:21:00,53.0,51.0,-100.00,North,359,0.0,2.0,94,0.00,,,0.00,0.000000,,2013-08-14 12:21:00,
2013-08-14 04:31:00,53.0,51.0,-100.00,North,359,0.0,2.0,94,0.00,,,0.00,0.000000,,2013-08-14 12:31:00,
2013-08-14 04:42:00,53.0,51.0,-100.00,North,359,0.0,2.0,94,0.00,,,0.00,0.000000,,2013-08-14 12:42:00,
2013-08-14 04:52:00,53.0,51.0,-100.00,North,359,0.0,2.0,94,0.00,,,0.00,0.000000,,2013-08-14 12:52:00,
2013-08-14 05:21:00,53.0,52.0,-100.00,East,87,0.0,2.0,96,0.00,,,0.00,0.000000,,2013-08-14 13:21:00,
2013-08-14 05:31:00,53.0,52.0,-100.00,East,87,0.0,2.0,96,0.00,,,0.00,0.000000,,2013-08-14 13:31:00,
2013-08-14 05:52:00,53.0,52.0,-100.00,East,87,0.0,2.0,96,0.00,,,0.00,0.000000,,2013-08-14 13:52:00,
2013-08-14 06:21:00,53.0,52.0,-100.00,ENE,63,0.0,0.0,95,0.00,,,0.00,0.000000,,2013-08-14 14:21:00,
2013-08-14 06:32:00,53.0,52.0,-100.00,ENE,63,0.0,0.0,95,0.00,,,0.00,0.000000,,2013-08-14 14:32:00,
2013-08-14 06:52:00,53.0,52.0,-100.00,ENE,63,0.0,0.0,95,0.00,,,0.00,0.000000,,2013-08-14 14:52:00,
2013-08-14 06:56:00,53.0,52.0,-100.00,ENE,57,0.0,0.0,96,0.00,,,0.00,3.000000,,2013-08-14 14:56:00,
2013-08-14 07:22:00,53.0,52.0,-100.00,ENE,57,0.0,0.0,96,0.00,,,0.00,3.000000,,2013-08-14 15:22:00,
2013-08-14 07:33:00,53.0,52.0,-100.00,ENE,57,0.0,0.0,96,0.00,,,0.00,3.000000,,2013-08-14 15:33:00,
2013-08-14 07:43:00,53.0,52.0,-100.00,ENE,57,0.0,0.0,96,0.00,,,0.00,3.000000,,2013-08-14 15:43:00,
2013-08-14 07:58:00,53.0,52.0,-100.00,ENE,60,0.0,0.0,96,0.00,,,0.00,15.000000,,2013-08-14 15:58:00,
2013-08-14 08:27:00,53.0,52.0,-100.00,ENE,60,0.0,0.0,96,0.00,,,0.00,15.000000,,2013-08-14 16:27:00,
2013-08-14 08:33:00,53.0,52.0,-100.00,ENE,60,0.0,0.0,96,0.00,,,0.00,15.000000,,2013-08-14 16:33:00,
2013-08-14 09:29:00,55.0,51.0,-100.00,SW,225,1.0,3.0,87,0.00,,,0.00,52.000000,,2013-08-14 17:29:00,
2013-08-14 09:35:00,55.0,51.0,-100.00,SW,225,1.0,3.0,87,0.00,,,0.00,52.000000,,2013-08-14 17:35:00,
2013-08-14 09:44:00,55.0,51.0,-100.00,SW,225,1.0,3.0,87,0.00,,,0.00,52.000000,,2013-08-14 17:44:00,
2013-08-14 09:55:00,55.0,51.0,-100.00,SW,225,1.0,3.0,87,0.00,,,0.00,52.000000,,2013-08-14 17:55:00,
2013-08-14 09:56:00,-999.0,-99.9,-100.00,WNW,284,2.0,4.0,-999,-99.99,,,-99.99,92.000000,,2013-08-14 17:56:00,
2013-08-14 10:31:00,56.0,50.0,-100.00,WNW,284,2.0,4.0,80,0.00,,,0.00,92.000000,,2013-08-14 18:31:00,
2013-08-14 10:40:00,56.0,50.0,-100.00,WNW,284,2.0,4.0,80,0.00,,,0.00,92.000000,,2013-08-14 18:40:00,
2013-08-14 10:53:00,56.0,50.0,-100.00,WNW,284,2.0,4.0,80,0.00,,,0.00,92.000000,,2013-08-14 18:53:00,
2013-08-14 11:27:00,56.0,51.0,-100.00,WSW,249,2.0,5.0,83,0.00,,,0.00,87.000000,,2013-08-14 19:27:00,
2013-08-14 11:35:00,56.0,51.0,-100.00,WSW,249,2.0,5.0,83,0.00,,,0.00,87.000000,,2013-08-14 19:35:00,
2013-08-14 11:42:00,56.0,51.0,-100.00,WSW,249,2.0,5.0,83,0.00,,,0.00,87.000000,,2013-08-14 19:42:00,
2013-08-14 11:52:00,56.0,51.0,-100.00,WSW,249,2.0,5.0,83,0.00,,,0.00,87.000000,,2013-08-14 19:52:00,
2013-08-14 12:48:00,55.0,51.0,-100.00,WNW,294,2.0,6.0,85,0.00,,,0.00,80.000000,,2013-08-14 20:48:00,
2013-08-14 13:23:00,57.0,52.0,-100.00,West,277,3.0,6.0,82,0.00,,,0.00,130.000000,,2013-08-14 21:23:00,
2013-08-14 13:34:00,57.0,52.0,-100.00,West,277,3.0,6.0,82,0.00,,,0.00,130.000000,,2013-08-14 21:34:00,
2013-08-14 13:45:00,57.0,52.0,-100.00,West,277,3.0,6.0,82,0.00,,,0.00,130.000000,,2013-08-14 21:45:00,
2013-08-14 13:55:00,57.0,52.0,-100.00,West,277,3.0,6.0,82,0.00,,,0.00,130.000000,,2013-08-14 21:55:00,
2013-08-14 14:23:00,57.0,50.0,-100.00,WNW,302,1.0,7.0,77,0.00,,,0.00,175.000000,,2013-08-14 22:23:00,
2013-08-14 14:35:00,57.0,50.0,-100.00,WNW,302,1.0,7.0,77,0.00,,,0.00,175.000000,,2013-08-14 22:35:00,
2013-08-14 14:44:00,57.0,50.0,-100.00,WNW,302,1.0,7.0,77,0.00,,,0.00,175.000000,,2013-08-14 22:44:00,
2013-08-14 14:54:00,57.0,50.0,-100.00,WNW,302,1.0,7.0,77,0.00,,,0.00,175.000000,,2013-08-14 22:54:00,
2013-08-14 14:56:00,59.0,51.0,-100.00,ENE,63,2.0,4.0,76,0.00,,,0.00,154.000000,,2013-08-14 22:56:00,
2013-08-14 15:24:00,59.0,51.0,-100.00,ENE,63,2.0,4.0,76,0.00,,,0.00,154.000000,,2013-08-14 23:24:00,
2013-08-14 15:37:00,59.0,51.0,-100.00,ENE,63,2.0,4.0,76,0.00,,,0.00,154.000000,,2013-08-14 23:37:00,
2013-08-14 15:46:00,59.0,51.0,-100.00,ENE,63,2.0,4.0,76,0.00,,,0.00,154.000000,,2013-08-14 23:46:00,
2013-08-14 16:23:00,59.0,51.0,-100.00,NE,55,2.0,4.0,75,0.00,,,0.00,124.000000,,2013-08-15 00:23:00,
2013-08-14 16:32:00,59.0,51.0,-100.00,NE,55,2.0,4.0,75,0.00,,,0.00,124.000000,,2013-08-15 00:32:00,
2013-08-14 16:43:00,59.0,51.0,-100.00,NE,55,2.0,4.0,75,0.00,,,0.00,124.000000,,2013-08-15 00:43:00,
2013-08-14 16:52:00,59.0,51.0,-100.00,NE,55,2.0,4.0,75,0.00,,,0.00,124.000000,,2013-08-15 00:52:00,
2013-08-14 17:22:00,60.0,52.0,-100.00,ENE,74,2.0,4.0,74,0.00,,,0.00,139.000000,,2013-08-15 01:22:00,
2013-08-14 17:32:00,60.0,52.0,-100.00,ENE,74,2.0,4.0,74,0.00,,,0.00,139.000000,,2013-08-15 01:32:00,
2013-08-14 17:42:00,60.0,52.0,-100.00,ENE,74,2.0,4.0,74,0.00,,,0.00,139.000000,,2013-08-15 01:42:00,
2013-08-14 17:52:00,60.0,52.0,-100.00,ENE,74,2.0,4.0,74,0.00,,,0.00,139.000000,,2013-08-15 01:52:00,
2013-08-14 18:21:00,59.0,51.0,-100.00,East,94,1.0,2.0,74,0.00,,,0.00,89.000000,,2013-08-15 02:21:00,
2013-08-14 18:31:00,59.0,51.0,-100.00,East,94,1.0,2.0,74,0.00,,,0.00,89.000000,,2013-08-15 02:31:00,
2013-08-14 18:42:00,59.0,51.0,-100.00,East,94,1.0,2.0,74,0.00,,,0.00,89.000000,,2013-08-15 02:42:00,
2013-08-14 18:52:00,59.0,51.0,-100.00,East,94,1.0,2.0,74,0.00,,,0.00,89.000000,,2013-08-15 02:52:00,
2013-08-14 19:22:00,59.0,50.0,-100.00,SW,222,1.0,4.0,72,0.00,,,0.00,84.000000,,2013-08-15 03:22:00,
2013-08-14 19:33:00,59.0,50.0,-100.00,SW,222,1.0,4.0,72,0.00,,,0.00,84.000000,,2013-08-15 03:33:00,
2013-08-14 19:43:00,59.0,50.0,-100.00,SW,222,1.0,4.0,72,0.00,,,0.00,84.000000,,2013-08-15 03:43:00,
2013-08-14 19:53:00,59.0,50.0,-100.00,SW,222,1.0,4.0,72,0.00,,,0.00,84.000000,,2013-08-15 03:53:00,
2013-08-14 20:22:00,60.0,50.0,-100.00,West,259,1.0,5.0,69,0.00,,,0.00,100.000000,,2013-08-15 04:22:00,
2013-08-14 20:32:00,60.0,50.0,-100.00,West,259,1.0,5.0,69,0.00,,,0.00,100.000000,,2013-08-15 04:32:00,
2013-08-14 20:43:00,60.0,50.0,-100.00,West,259,1.0,5.0,69,0.00,,,0.00,100.000000,,2013-08-15 04:43:00,
2013-08-14 20:52:00,60.0,50.0,-100.00,West,259,1.0,5.0,69,0.00,,,0.00,100.000000,,2013-08-15 04:52:00,
2013-08-14 21:22:00,58.0,50.0,-100.00,NE,40,0.0,2.0,74,0.00,,,0.00,74.000000,,2013-08-15 05:22:00,
2013-08-14 21:32:00,58.0,50.0,-100.00,NE,40,0.0,2.0,74,0.00,,,0.00,74.000000,,2013-08-15 05:32:00,
2013-08-14 21:42:00,58.0,50.0,-100.00,NE,40,0.0,2.0,74,0.00,,,0.00,74.000000,,2013-08-15 05:42:00,
2013-08-14 21:52:00,58.0,50.0,-100.00,NE,40,0.0,2.0,74,0.00,,,0.00,74.000000,,2013-08-15 05:52:00,
2013-08-14 22:21:00,56.0,52.0,-100.00,SSW,206,1.0,2.0,85,0.00,,,0.00,19.000000,,2013-08-15 06:21:00,
2013-08-14 22:31:00,56.0,52.0,-100.00,SSW,206,1.0,2.0,85,0.00,,,0.00,19.000000,,2013-08-15 06:31:00,
2013-08-14 22:51:00,56.0,52.0,-100.00,SSW,206,1.0,2.0,85,0.00,,,0.00,19.000000,,2013-08-15 06:51:00,
2013-08-14 23:21:00,54.0,51.0,-100.00,East,100,0.0,0.0,90,0.00,,,0.00,0.000000,,2013-08-15 07:21:00,
2013-08-14 23:32:00,54.0,51.0,-100.00,East,100,0.0,0.0,90,0.00,,,0.00,0.000000,,2013-08-15 07:32:00,
2013-08-14 23:41:00,54.0,51.0,-100.00,East,100,0.0,0.0,90,0.00,,,0.00,0.000000,,2013-08-15 07:41:00,
2013-08-14 23:52:00,54.0,51.0,-100.00,East,100,0.0,0.0,90,0.00,,,0.00,0.000000,,2013-08-15 07:52:00,